Year,Month,Day,Hour,Minute,Value (Times are PST for temperature in C)
2018,06,15,00,00,10.80
2018,06,15,00,01,10.80
2018,06,15,00,02,10.80
2018,06,15,00,03,10.80
2018,06,15,00,04,10.80
2018,06,15,00,05,10.80
2018,06,15,00,06,10.80
2018,06,15,00,07,10.80
2018,06,15,00,08,10.80
2018,06,15,00,09,10.80
2018,06,15,00,10,10.80
2018,06,15,00,11,10.80
2018,06,15,00,12,10.80
2018,06,15,00,13,10.80
2018,06,15,00,14,10.80
2018,06,15,00,15,10.80
2018,06,15,00,16,10.80
2018,06,15,00,17,10.80
2018,06,15,00,18,10.80
2018,06,15,00,19,10.80
2018,06,15,00,20,10.80
2018,06,15,00,21,10.80
2018,06,15,00,22,10.80
2018,06,15,00,23,10.80
2018,06,15,00,24,10.70
2018,06,15,00,25,10.70
2018,06,15,00,26,10.70
2018,06,15,00,27,10.70
2018,06,15,00,28,10.70
2018,06,15,00,29,10.70
2018,06,15,00,30,10.70
2018,06,15,00,31,10.70
2018,06,15,00,32,10.70
2018,06,15,00,33,10.70
2018,06,15,00,34,10.70
2018,06,15,00,35,10.70
2018,06,15,00,36,10.70
2018,06,15,00,37,10.70
2018,06,15,00,38,10.70
2018,06,15,00,39,10.70
2018,06,15,00,40,10.70
2018,06,15,00,41,10.70
2018,06,15,00,42,10.70
2018,06,15,00,43,10.70
2018,06,15,00,44,10.70
2018,06,15,00,45,10.70
2018,06,15,00,46,10.70
2018,06,15,00,47,10.60
2018,06,15,00,48,10.60
2018,06,15,00,49,10.60
2018,06,15,00,50,10.60
2018,06,15,00,51,10.60
2018,06,15,00,52,10.60
2018,06,15,00,53,10.60
2018,06,15,00,54,10.60
2018,06,15,00,55,10.60
2018,06,15,00,56,10.60
2018,06,15,00,57,10.60
2018,06,15,00,58,10.60
2018,06,15,00,59,10.60
2018,06,15,01,00,10.60
2018,06,15,01,01,10.60
2018,06,15,01,02,10.50
2018,06,15,01,03,10.60
2018,06,15,01,04,10.50
2018,06,15,01,05,10.50
2018,06,15,01,06,10.50
2018,06,15,01,07,10.50
2018,06,15,01,08,10.50
2018,06,15,01,09,10.50
2018,06,15,01,10,10.50
2018,06,15,01,11,10.50
2018,06,15,01,12,10.50
2018,06,15,01,13,10.50
2018,06,15,01,14,10.50
2018,06,15,01,15,10.50
2018,06,15,01,16,10.50
2018,06,15,01,17,10.50
2018,06,15,01,18,10.40
2018,06,15,01,19,10.40
2018,06,15,01,20,10.40
2018,06,15,01,21,10.40
2018,06,15,01,22,10.40
2018,06,15,01,23,10.40
2018,06,15,01,24,10.40
2018,06,15,01,25,10.40
2018,06,15,01,26,10.40
2018,06,15,01,27,10.40
2018,06,15,01,28,10.40
2018,06,15,01,29,10.40
2018,06,15,01,30,10.40
2018,06,15,01,31,10.40
2018,06,15,01,32,10.40
2018,06,15,01,33,10.40
2018,06,15,01,34,10.40
2018,06,15,01,35,10.40
2018,06,15,01,36,10.40
2018,06,15,01,37,10.40
2018,06,15,01,38,10.40
2018,06,15,01,39,10.50
2018,06,15,01,40,10.50
2018,06,15,01,41,10.50
2018,06,15,01,42,10.50
2018,06,15,01,43,10.60
2018,06,15,01,44,10.60
2018,06,15,01,45,10.60
2018,06,15,01,46,10.60
2018,06,15,01,47,10.60
2018,06,15,01,48,10.60
2018,06,15,01,49,10.60
2018,06,15,01,50,10.60
2018,06,15,01,51,10.60
2018,06,15,01,52,10.60
2018,06,15,01,53,10.60
2018,06,15,01,54,10.60
2018,06,15,01,55,10.60
2018,06,15,01,56,10.60
2018,06,15,01,57,10.60
2018,06,15,01,58,10.60
2018,06,15,01,59,10.60
2018,06,15,02,00,10.50
2018,06,15,02,01,10.50
2018,06,15,02,02,10.50
2018,06,15,02,03,10.50
2018,06,15,02,04,10.50
2018,06,15,02,05,10.50
2018,06,15,02,06,10.50
2018,06,15,02,07,10.60
2018,06,15,02,08,10.60
2018,06,15,02,09,10.50
2018,06,15,02,10,10.60
2018,06,15,02,11,10.50
2018,06,15,02,12,10.50
2018,06,15,02,13,10.50
2018,06,15,02,14,10.50
2018,06,15,02,15,10.50
2018,06,15,02,16,10.50
2018,06,15,02,17,10.50
2018,06,15,02,18,10.40
2018,06,15,02,19,10.40
2018,06,15,02,20,10.40
2018,06,15,02,21,10.40
2018,06,15,02,22,10.40
2018,06,15,02,23,10.40
2018,06,15,02,24,10.40
2018,06,15,02,25,10.40
2018,06,15,02,26,10.40
2018,06,15,02,27,10.40
2018,06,15,02,28,10.40
2018,06,15,02,29,10.40
2018,06,15,02,30,10.40
2018,06,15,02,31,10.40
2018,06,15,02,32,10.40
2018,06,15,02,33,10.40
2018,06,15,02,34,10.40
2018,06,15,02,35,10.40
2018,06,15,02,36,10.40
2018,06,15,02,37,10.40
2018,06,15,02,38,10.40
2018,06,15,02,39,10.40
2018,06,15,02,40,10.40
2018,06,15,02,41,10.40
2018,06,15,02,42,10.40
2018,06,15,02,43,10.40
2018,06,15,02,44,10.40
2018,06,15,02,45,10.40
2018,06,15,02,46,10.40
2018,06,15,02,47,10.40
2018,06,15,02,48,10.40
2018,06,15,02,49,10.40
2018,06,15,02,50,10.40
2018,06,15,02,51,10.40
2018,06,15,02,52,10.40
2018,06,15,02,53,10.40
2018,06,15,02,54,10.40
2018,06,15,02,55,10.40
2018,06,15,02,56,10.40
2018,06,15,02,57,10.40
2018,06,15,02,58,10.50
2018,06,15,02,59,10.50
2018,06,15,03,00,10.50
2018,06,15,03,01,10.50
2018,06,15,03,02,10.50
2018,06,15,03,03,10.60
2018,06,15,03,04,10.60
2018,06,15,03,05,10.60
2018,06,15,03,06,10.60
2018,06,15,03,07,10.70
2018,06,15,03,08,10.70
2018,06,15,03,09,10.70
2018,06,15,03,10,10.70
2018,06,15,03,11,10.70
2018,06,15,03,12,10.70
2018,06,15,03,13,10.70
2018,06,15,03,14,10.80
2018,06,15,03,15,10.80
2018,06,15,03,16,10.80
2018,06,15,03,17,10.80
2018,06,15,03,18,10.80
2018,06,15,03,19,10.80
2018,06,15,03,20,10.80
2018,06,15,03,21,10.90
2018,06,15,03,22,10.90
2018,06,15,03,23,10.90
2018,06,15,03,24,10.90
2018,06,15,03,25,10.90
2018,06,15,03,26,10.90
2018,06,15,03,27,10.90
2018,06,15,03,28,10.90
2018,06,15,03,29,10.90
2018,06,15,03,30,10.90
2018,06,15,03,31,11.00
2018,06,15,03,32,11.00
2018,06,15,03,33,11.00
2018,06,15,03,34,11.00
2018,06,15,03,35,11.00
2018,06,15,03,36,11.00
2018,06,15,03,37,11.00
2018,06,15,03,38,11.00
2018,06,15,03,39,11.00
2018,06,15,03,40,11.00
2018,06,15,03,41,11.00
2018,06,15,03,42,11.00
2018,06,15,03,43,11.00
2018,06,15,03,44,11.00
2018,06,15,03,45,11.10
2018,06,15,03,46,11.10
2018,06,15,03,47,11.10
2018,06,15,03,48,11.10
2018,06,15,03,49,11.10
2018,06,15,03,50,11.10
2018,06,15,03,51,11.10
2018,06,15,03,52,11.10
2018,06,15,03,53,11.10
2018,06,15,03,54,11.10
2018,06,15,03,55,11.10
2018,06,15,03,56,11.10
2018,06,15,03,57,11.10
2018,06,15,03,58,11.10
2018,06,15,03,59,11.10
2018,06,15,04,00,11.10
2018,06,15,04,01,11.20
2018,06,15,04,02,11.20
2018,06,15,04,03,11.20
2018,06,15,04,04,11.20
2018,06,15,04,05,11.20
2018,06,15,04,06,11.30
2018,06,15,04,07,11.30
2018,06,15,04,08,11.30
2018,06,15,04,09,11.30
2018,06,15,04,10,11.40
2018,06,15,04,11,11.40
2018,06,15,04,12,11.40
2018,06,15,04,13,11.40
2018,06,15,04,14,11.40
2018,06,15,04,15,11.50
2018,06,15,04,16,11.50
2018,06,15,04,17,11.50
2018,06,15,04,18,11.60
2018,06,15,04,19,11.60
2018,06,15,04,20,11.60
2018,06,15,04,21,11.60
2018,06,15,04,22,11.60
2018,06,15,04,23,11.70
2018,06,15,04,24,11.70
2018,06,15,04,25,11.70
2018,06,15,04,26,11.70
2018,06,15,04,27,11.70
2018,06,15,04,28,11.70
2018,06,15,04,29,11.70
2018,06,15,04,30,11.70
2018,06,15,04,31,11.70
2018,06,15,04,32,11.70
2018,06,15,04,33,11.70
2018,06,15,04,34,11.70
2018,06,15,04,35,11.70
2018,06,15,04,36,11.70
2018,06,15,04,37,11.70
2018,06,15,04,38,11.70
2018,06,15,04,39,11.70
2018,06,15,04,40,11.70
2018,06,15,04,41,11.70
2018,06,15,04,42,11.70
2018,06,15,04,43,11.80
2018,06,15,04,44,11.70
2018,06,15,04,45,11.80
2018,06,15,04,46,11.80
2018,06,15,04,47,11.80
2018,06,15,04,48,11.80
2018,06,15,04,49,11.80
2018,06,15,04,50,11.80
2018,06,15,04,51,11.80
2018,06,15,04,52,11.80
2018,06,15,04,53,11.80
2018,06,15,04,54,11.80
2018,06,15,04,55,11.80
2018,06,15,04,56,11.80
2018,06,15,04,57,11.80
2018,06,15,04,58,11.80
2018,06,15,04,59,11.80
2018,06,15,05,00,11.80
2018,06,15,05,01,11.80
2018,06,15,05,02,11.80
2018,06,15,05,03,11.80
2018,06,15,05,04,11.80
2018,06,15,05,05,11.80
2018,06,15,05,06,11.80
2018,06,15,05,07,11.90
2018,06,15,05,08,11.90
2018,06,15,05,09,11.90
2018,06,15,05,10,11.90
2018,06,15,05,11,11.90
2018,06,15,05,12,11.90
2018,06,15,05,13,11.90
2018,06,15,05,14,11.90
2018,06,15,05,15,11.90
2018,06,15,05,16,11.90
2018,06,15,05,17,11.90
2018,06,15,05,18,11.90
2018,06,15,05,19,11.90
2018,06,15,05,20,12.00
2018,06,15,05,21,12.00
2018,06,15,05,22,12.00
2018,06,15,05,23,12.00
2018,06,15,05,24,12.00
2018,06,15,05,25,12.00
2018,06,15,05,26,12.00
2018,06,15,05,27,12.00
2018,06,15,05,28,12.00
2018,06,15,05,29,12.00
2018,06,15,05,30,12.00
2018,06,15,05,31,12.10
2018,06,15,05,32,12.10
2018,06,15,05,33,12.10
2018,06,15,05,34,12.10
2018,06,15,05,35,12.10
2018,06,15,05,36,12.10
2018,06,15,05,37,12.10
2018,06,15,05,38,12.10
2018,06,15,05,39,12.20
2018,06,15,05,40,12.20
2018,06,15,05,41,12.20
2018,06,15,05,42,12.20
2018,06,15,05,43,12.20
2018,06,15,05,44,12.20
2018,06,15,05,45,12.20
2018,06,15,05,46,12.30
2018,06,15,05,47,12.30
2018,06,15,05,48,12.30
2018,06,15,05,49,12.30
2018,06,15,05,50,12.30
2018,06,15,05,51,12.30
2018,06,15,05,52,12.30
2018,06,15,05,53,12.30
2018,06,15,05,54,12.30
2018,06,15,05,55,12.30
2018,06,15,05,56,12.30
2018,06,15,05,57,12.30
2018,06,15,05,58,12.30
2018,06,15,05,59,12.30
2018,06,15,06,00,12.30
2018,06,15,06,01,12.30
2018,06,15,06,02,12.30
2018,06,15,06,03,12.30
2018,06,15,06,04,12.30
2018,06,15,06,05,12.30
2018,06,15,06,06,12.30
2018,06,15,06,07,12.30
2018,06,15,06,08,12.30
2018,06,15,06,09,12.30
2018,06,15,06,10,12.30
2018,06,15,06,11,12.30
2018,06,15,06,12,12.30
2018,06,15,06,13,12.30
2018,06,15,06,14,12.30
2018,06,15,06,15,12.30
2018,06,15,06,16,12.30
2018,06,15,06,17,12.30
2018,06,15,06,18,12.30
2018,06,15,06,19,12.30
2018,06,15,06,20,12.30
2018,06,15,06,21,12.30
2018,06,15,06,22,12.40
2018,06,15,06,23,12.40
2018,06,15,06,24,12.40
2018,06,15,06,25,12.40
2018,06,15,06,26,12.40
2018,06,15,06,27,12.50
2018,06,15,06,28,12.50
2018,06,15,06,29,12.50
2018,06,15,06,30,12.50
2018,06,15,06,31,12.60
2018,06,15,06,32,12.60
2018,06,15,06,33,12.60
2018,06,15,06,34,12.60
2018,06,15,06,35,12.70
2018,06,15,06,36,12.70
2018,06,15,06,37,12.70
2018,06,15,06,38,12.70
2018,06,15,06,39,12.70
2018,06,15,06,40,12.70
2018,06,15,06,41,12.70
2018,06,15,06,42,12.70
2018,06,15,06,43,12.70
2018,06,15,06,44,12.70
2018,06,15,06,45,12.70
2018,06,15,06,46,12.70
2018,06,15,06,47,12.70
2018,06,15,06,48,12.70
2018,06,15,06,49,12.70
2018,06,15,06,50,12.70
2018,06,15,06,51,12.80
2018,06,15,06,52,12.80
2018,06,15,06,53,12.80
2018,06,15,06,54,12.80
2018,06,15,06,55,12.80
2018,06,15,06,56,12.80
2018,06,15,06,57,12.90
2018,06,15,06,58,12.90
2018,06,15,06,59,12.90
2018,06,15,07,00,12.90
2018,06,15,07,01,12.90
2018,06,15,07,02,12.90
2018,06,15,07,03,13.00
2018,06,15,07,04,13.00
2018,06,15,07,05,13.00
2018,06,15,07,06,13.00
2018,06,15,07,07,13.10
2018,06,15,07,08,13.10
2018,06,15,07,09,13.10
2018,06,15,07,10,13.10
2018,06,15,07,11,13.10
2018,06,15,07,12,13.10
2018,06,15,07,13,13.10
2018,06,15,07,14,13.20
2018,06,15,07,15,13.20
2018,06,15,07,16,13.20
2018,06,15,07,17,13.20
2018,06,15,07,18,13.20
2018,06,15,07,19,13.20
2018,06,15,07,20,13.20
2018,06,15,07,21,13.20
2018,06,15,07,22,13.20
2018,06,15,07,23,13.20
2018,06,15,07,24,13.20
2018,06,15,07,25,13.30
2018,06,15,07,26,13.30
2018,06,15,07,27,13.30
2018,06,15,07,28,13.30
2018,06,15,07,29,13.30
2018,06,15,07,30,13.30
2018,06,15,07,31,13.30
2018,06,15,07,32,13.30
2018,06,15,07,33,13.30
2018,06,15,07,34,13.30
2018,06,15,07,35,13.30
2018,06,15,07,36,13.40
2018,06,15,07,37,13.40
2018,06,15,07,38,13.40
2018,06,15,07,39,13.40
2018,06,15,07,40,13.40
2018,06,15,07,41,13.40
2018,06,15,07,42,13.40
2018,06,15,07,43,13.50
2018,06,15,07,44,13.50
2018,06,15,07,45,13.50
2018,06,15,07,46,13.50
2018,06,15,07,47,13.60
2018,06,15,07,48,13.60
2018,06,15,07,49,13.60
2018,06,15,07,50,13.60
2018,06,15,07,51,13.60
2018,06,15,07,52,13.70
2018,06,15,07,53,13.70
2018,06,15,07,54,13.70
2018,06,15,07,55,13.70
2018,06,15,07,56,13.80
2018,06,15,07,57,13.80
2018,06,15,07,58,13.80
2018,06,15,07,59,13.80
2018,06,15,08,00,13.80
2018,06,15,08,01,13.90
2018,06,15,08,02,13.90
2018,06,15,08,03,14.00
2018,06,15,08,04,14.00
2018,06,15,08,05,14.00
2018,06,15,08,06,14.10
2018,06,15,08,07,14.10
2018,06,15,08,08,14.20
2018,06,15,08,09,14.20
2018,06,15,08,10,14.20
2018,06,15,08,11,14.20
2018,06,15,08,12,14.30
2018,06,15,08,13,14.30
2018,06,15,08,14,14.30
2018,06,15,08,15,14.30
2018,06,15,08,16,14.30
2018,06,15,08,17,14.30
2018,06,15,08,18,14.40
2018,06,15,08,19,14.40
2018,06,15,08,20,14.40
2018,06,15,08,21,14.40
2018,06,15,08,22,14.40
2018,06,15,08,23,14.40
2018,06,15,08,24,14.40
2018,06,15,08,25,14.40
2018,06,15,08,26,14.40
2018,06,15,08,27,14.40
2018,06,15,08,28,14.40
2018,06,15,08,29,14.40
2018,06,15,08,30,14.40
2018,06,15,08,31,14.40
2018,06,15,08,32,14.50
2018,06,15,08,33,14.50
2018,06,15,08,34,14.50
2018,06,15,08,35,14.50
2018,06,15,08,36,14.50
2018,06,15,08,37,14.50
2018,06,15,08,38,14.50
2018,06,15,08,39,14.50
2018,06,15,08,40,14.50
2018,06,15,08,41,14.50
2018,06,15,08,42,14.50
2018,06,15,08,43,14.60
2018,06,15,08,44,14.60
2018,06,15,08,45,14.60
2018,06,15,08,46,14.60
2018,06,15,08,47,14.60
2018,06,15,08,48,14.70
2018,06,15,08,49,14.60
2018,06,15,08,50,14.60
2018,06,15,08,51,14.70
2018,06,15,08,52,14.70
2018,06,15,08,53,14.70
2018,06,15,08,54,14.70
2018,06,15,08,55,14.70
2018,06,15,08,56,14.80
2018,06,15,08,57,14.80
2018,06,15,08,58,14.80
2018,06,15,08,59,14.80
2018,06,15,09,00,14.80
2018,06,15,09,01,14.80
2018,06,15,09,02,14.80
2018,06,15,09,03,14.80
2018,06,15,09,04,14.80
2018,06,15,09,05,14.80
2018,06,15,09,06,14.80
2018,06,15,09,07,14.80
2018,06,15,09,08,14.80
2018,06,15,09,09,14.80
2018,06,15,09,10,14.80
2018,06,15,09,11,14.70
2018,06,15,09,12,14.70
2018,06,15,09,13,14.70
2018,06,15,09,14,14.70
2018,06,15,09,15,14.70
2018,06,15,09,16,14.70
2018,06,15,09,17,14.70
2018,06,15,09,18,14.80
2018,06,15,09,19,14.80
2018,06,15,09,20,14.80
2018,06,15,09,21,14.90
2018,06,15,09,22,15.00
2018,06,15,09,23,15.10
2018,06,15,09,24,15.10
2018,06,15,09,25,15.20
2018,06,15,09,26,15.20
2018,06,15,09,27,15.20
2018,06,15,09,28,15.30
2018,06,15,09,29,15.40
2018,06,15,09,30,15.40
2018,06,15,09,31,15.50
2018,06,15,09,32,15.60
2018,06,15,09,33,15.70
2018,06,15,09,34,15.70
2018,06,15,09,35,15.80
2018,06,15,09,36,15.90
2018,06,15,09,37,16.00
2018,06,15,09,38,16.10
2018,06,15,09,39,16.10
2018,06,15,09,40,16.20
2018,06,15,09,41,16.30
2018,06,15,09,42,16.40
2018,06,15,09,43,16.50
2018,06,15,09,44,16.50
2018,06,15,09,45,16.60
2018,06,15,09,46,16.70
2018,06,15,09,47,16.80
2018,06,15,09,48,16.80
2018,06,15,09,49,16.90
2018,06,15,09,50,17.00
2018,06,15,09,51,17.10
2018,06,15,09,52,17.10
2018,06,15,09,53,17.20
2018,06,15,09,54,17.20
2018,06,15,09,55,17.20
2018,06,15,09,56,17.10
2018,06,15,09,57,17.10
2018,06,15,09,58,17.00
2018,06,15,09,59,17.00
2018,06,15,10,00,16.90
2018,06,15,10,01,16.80
2018,06,15,10,02,16.80
2018,06,15,10,03,16.80
2018,06,15,10,04,16.70
2018,06,15,10,05,16.70
2018,06,15,10,06,16.70
2018,06,15,10,07,16.60
2018,06,15,10,08,16.60
2018,06,15,10,09,16.60
2018,06,15,10,10,16.60
2018,06,15,10,11,16.60
2018,06,15,10,12,16.60
2018,06,15,10,13,16.60
2018,06,15,10,14,16.60
2018,06,15,10,15,16.50
2018,06,15,10,16,16.50
2018,06,15,10,17,16.40
2018,06,15,10,18,16.40
2018,06,15,10,19,16.30
2018,06,15,10,20,16.30
2018,06,15,10,21,16.30
2018,06,15,10,22,16.20
2018,06,15,10,23,16.20
2018,06,15,10,24,16.20
2018,06,15,10,25,16.20
2018,06,15,10,26,16.20
2018,06,15,10,27,16.20
2018,06,15,10,28,16.20
2018,06,15,10,29,16.20
2018,06,15,10,30,16.20
2018,06,15,10,31,16.20
2018,06,15,10,32,16.20
2018,06,15,10,33,16.20
2018,06,15,10,34,16.30
2018,06,15,10,35,16.30
2018,06,15,10,36,16.30
2018,06,15,10,37,16.40
2018,06,15,10,38,16.40
2018,06,15,10,39,16.50
2018,06,15,10,40,16.60
2018,06,15,10,41,16.60
2018,06,15,10,42,16.70
2018,06,15,10,43,16.70
2018,06,15,10,44,16.70
2018,06,15,10,45,16.80
2018,06,15,10,46,16.90
2018,06,15,10,47,17.00
2018,06,15,10,48,17.20
2018,06,15,10,49,17.30
2018,06,15,10,50,17.50
2018,06,15,10,51,17.60
2018,06,15,10,52,17.70
2018,06,15,10,53,17.80
2018,06,15,10,54,17.80
2018,06,15,10,55,17.80
2018,06,15,10,56,17.80
2018,06,15,10,57,17.90
2018,06,15,10,58,17.90
2018,06,15,10,59,17.90
2018,06,15,11,00,17.90
2018,06,15,11,01,17.90
2018,06,15,11,02,17.90
2018,06,15,11,03,17.90
2018,06,15,11,04,18.00
2018,06,15,11,05,18.00
2018,06,15,11,06,18.10
2018,06,15,11,07,18.00
2018,06,15,11,08,18.00
2018,06,15,11,09,18.00
2018,06,15,11,10,18.00
2018,06,15,11,11,18.00
2018,06,15,11,12,17.90
2018,06,15,11,13,17.90
2018,06,15,11,14,17.90
2018,06,15,11,15,17.90
2018,06,15,11,16,17.90
2018,06,15,11,17,17.80
2018,06,15,11,18,17.70
2018,06,15,11,19,17.60
2018,06,15,11,20,17.60
2018,06,15,11,21,17.50
2018,06,15,11,22,17.50
2018,06,15,11,23,17.40
2018,06,15,11,24,17.30
2018,06,15,11,25,17.30
2018,06,15,11,26,17.30
2018,06,15,11,27,17.30
2018,06,15,11,28,17.40
2018,06,15,11,29,17.40
2018,06,15,11,30,17.50
2018,06,15,11,31,17.50
2018,06,15,11,32,17.60
2018,06,15,11,33,17.60
2018,06,15,11,34,17.70
2018,06,15,11,35,17.70
2018,06,15,11,36,17.80
2018,06,15,11,37,17.90
2018,06,15,11,38,17.90
2018,06,15,11,39,18.00
2018,06,15,11,40,18.00
2018,06,15,11,41,18.10
2018,06,15,11,42,18.10
2018,06,15,11,43,18.20
2018,06,15,11,44,18.20
2018,06,15,11,45,18.30
2018,06,15,11,46,18.30
2018,06,15,11,47,18.40
2018,06,15,11,48,18.50
2018,06,15,11,49,18.50
2018,06,15,11,50,18.50
2018,06,15,11,51,18.40
2018,06,15,11,52,18.50
2018,06,15,11,53,18.50
2018,06,15,11,54,18.50
2018,06,15,11,55,18.60
2018,06,15,11,56,18.60
2018,06,15,11,57,18.70
2018,06,15,11,58,18.60
2018,06,15,11,59,18.60
2018,06,15,12,00,18.60
2018,06,15,12,01,18.60
2018,06,15,12,02,18.50
2018,06,15,12,03,18.50
2018,06,15,12,04,18.50
2018,06,15,12,05,18.60
2018,06,15,12,06,18.60
2018,06,15,12,07,18.60
2018,06,15,12,08,18.70
2018,06,15,12,09,18.80
2018,06,15,12,10,18.90
2018,06,15,12,11,18.90
2018,06,15,12,12,18.90
2018,06,15,12,13,18.90
2018,06,15,12,14,18.90
2018,06,15,12,15,18.90
2018,06,15,12,16,18.90
2018,06,15,12,17,19.00
2018,06,15,12,18,19.10
2018,06,15,12,19,19.10
2018,06,15,12,20,19.20
2018,06,15,12,21,19.20
2018,06,15,12,22,19.20
2018,06,15,12,23,19.20
2018,06,15,12,24,19.10
2018,06,15,12,25,19.00
2018,06,15,12,26,18.80
2018,06,15,12,27,18.70
2018,06,15,12,28,18.60
2018,06,15,12,29,18.60
2018,06,15,12,30,18.70
2018,06,15,12,31,18.60
2018,06,15,12,32,18.60
2018,06,15,12,33,18.50
2018,06,15,12,34,18.40
2018,06,15,12,35,18.30
2018,06,15,12,36,18.30
2018,06,15,12,37,18.20
2018,06,15,12,38,18.20
2018,06,15,12,39,18.30
2018,06,15,12,40,18.30
2018,06,15,12,41,18.20
2018,06,15,12,42,18.10
2018,06,15,12,43,18.10
2018,06,15,12,44,18.10
2018,06,15,12,45,18.10
2018,06,15,12,46,18.10
2018,06,15,12,47,18.00
2018,06,15,12,48,18.00
2018,06,15,12,49,18.00
2018,06,15,12,50,18.00
2018,06,15,12,51,18.00
2018,06,15,12,52,18.10
2018,06,15,12,53,18.10
2018,06,15,12,54,18.10
2018,06,15,12,55,18.10
2018,06,15,12,56,18.20
2018,06,15,12,57,18.20
2018,06,15,12,58,18.20
2018,06,15,12,59,18.20
2018,06,15,13,00,18.30
2018,06,15,13,01,18.30
2018,06,15,13,02,18.30
2018,06,15,13,03,18.40
2018,06,15,13,04,18.40
2018,06,15,13,05,18.40
2018,06,15,13,06,18.50
2018,06,15,13,07,18.50
2018,06,15,13,08,18.60
2018,06,15,13,09,18.80
2018,06,15,13,10,18.90
2018,06,15,13,11,19.00
2018,06,15,13,12,19.00
2018,06,15,13,13,19.10
2018,06,15,13,14,19.10
2018,06,15,13,15,19.20
2018,06,15,13,16,19.30
2018,06,15,13,17,19.40
2018,06,15,13,18,19.50
2018,06,15,13,19,19.60
2018,06,15,13,20,19.70
2018,06,15,13,21,19.70
2018,06,15,13,22,19.60
2018,06,15,13,23,19.60
2018,06,15,13,24,19.70
2018,06,15,13,25,19.70
2018,06,15,13,26,19.80
2018,06,15,13,27,20.00
2018,06,15,13,28,20.10
2018,06,15,13,29,20.10
2018,06,15,13,30,20.10
2018,06,15,13,31,20.20
2018,06,15,13,32,20.10
2018,06,15,13,33,20.10
2018,06,15,13,34,20.10
2018,06,15,13,35,20.10
2018,06,15,13,36,20.10
2018,06,15,13,37,20.10
2018,06,15,13,38,20.10
2018,06,15,13,39,20.10
2018,06,15,13,40,20.10
2018,06,15,13,41,20.10
2018,06,15,13,42,20.10
2018,06,15,13,43,20.10
2018,06,15,13,44,20.10
2018,06,15,13,45,20.00
2018,06,15,13,46,20.00
2018,06,15,13,47,20.00
2018,06,15,13,48,20.00
2018,06,15,13,49,20.00
2018,06,15,13,50,20.00
2018,06,15,13,51,20.00
2018,06,15,13,52,20.10
2018,06,15,13,53,20.10
2018,06,15,13,54,20.10
2018,06,15,13,55,20.10
2018,06,15,13,56,20.00
2018,06,15,13,57,20.00
2018,06,15,13,58,20.00
2018,06,15,13,59,20.10
2018,06,15,14,00,20.10
2018,06,15,14,01,20.20
2018,06,15,14,02,20.30
2018,06,15,14,03,20.30
2018,06,15,14,04,20.40
2018,06,15,14,05,20.50
2018,06,15,14,06,20.60
2018,06,15,14,07,20.70
2018,06,15,14,08,20.90
2018,06,15,14,09,20.90
2018,06,15,14,10,21.00
2018,06,15,14,11,21.00
2018,06,15,14,12,20.90
2018,06,15,14,13,20.90
2018,06,15,14,14,20.90
2018,06,15,14,15,20.90
2018,06,15,14,16,21.00
2018,06,15,14,17,21.00
2018,06,15,14,18,21.00
2018,06,15,14,19,21.10
2018,06,15,14,20,21.10
2018,06,15,14,21,21.20
2018,06,15,14,22,21.20
2018,06,15,14,23,21.30
2018,06,15,14,24,21.30
2018,06,15,14,25,21.40
2018,06,15,14,26,21.50
2018,06,15,14,27,21.60
2018,06,15,14,28,21.70
2018,06,15,14,29,21.70
2018,06,15,14,30,21.80
2018,06,15,14,31,21.90
2018,06,15,14,32,21.90
2018,06,15,14,33,21.90
2018,06,15,14,34,21.90
2018,06,15,14,35,21.90
2018,06,15,14,36,21.90
2018,06,15,14,37,21.90
2018,06,15,14,38,21.90
2018,06,15,14,39,21.90
2018,06,15,14,40,22.00
2018,06,15,14,41,22.00
2018,06,15,14,42,22.00
2018,06,15,14,43,22.00
2018,06,15,14,44,21.90
2018,06,15,14,45,21.80
2018,06,15,14,46,21.80
2018,06,15,14,47,21.80
2018,06,15,14,48,21.70
2018,06,15,14,49,21.70
2018,06,15,14,50,21.70
2018,06,15,14,51,21.70
2018,06,15,14,52,21.60
2018,06,15,14,53,21.60
2018,06,15,14,54,21.50
2018,06,15,14,55,21.40
2018,06,15,14,56,21.40
2018,06,15,14,57,21.40
2018,06,15,14,58,21.40
2018,06,15,14,59,21.50
2018,06,15,15,00,21.50
2018,06,15,15,01,21.60
2018,06,15,15,02,21.70
2018,06,15,15,03,21.70
2018,06,15,15,04,21.80
2018,06,15,15,05,21.80
2018,06,15,15,06,21.90
2018,06,15,15,07,21.90
2018,06,15,15,08,21.80
2018,06,15,15,09,21.60
2018,06,15,15,10,21.50
2018,06,15,15,11,21.40
2018,06,15,15,12,21.40
2018,06,15,15,13,21.40
2018,06,15,15,14,21.40
2018,06,15,15,15,21.40
2018,06,15,15,16,21.40
2018,06,15,15,17,21.30
2018,06,15,15,18,21.40
2018,06,15,15,19,21.40
2018,06,15,15,20,21.30
2018,06,15,15,21,21.30
2018,06,15,15,22,21.40
2018,06,15,15,23,21.40
2018,06,15,15,24,21.50
2018,06,15,15,25,21.50
2018,06,15,15,26,21.50
2018,06,15,15,27,21.50
2018,06,15,15,28,21.40
2018,06,15,15,29,21.30
2018,06,15,15,30,21.30
2018,06,15,15,31,21.30
2018,06,15,15,32,21.30
2018,06,15,15,33,21.30
2018,06,15,15,34,21.20
2018,06,15,15,35,21.20
2018,06,15,15,36,21.10
2018,06,15,15,37,21.00
2018,06,15,15,38,20.90
2018,06,15,15,39,20.90
2018,06,15,15,40,21.00
2018,06,15,15,41,21.00
2018,06,15,15,42,21.10
2018,06,15,15,43,21.10
2018,06,15,15,44,21.00
2018,06,15,15,45,20.90
2018,06,15,15,46,20.90
2018,06,15,15,47,20.80
2018,06,15,15,48,20.70
2018,06,15,15,49,20.70
2018,06,15,15,50,20.70
2018,06,15,15,51,20.80
2018,06,15,15,52,20.80
2018,06,15,15,53,21.00
2018,06,15,15,54,21.10
2018,06,15,15,55,21.20
2018,06,15,15,56,21.20
2018,06,15,15,57,21.30
2018,06,15,15,58,21.30
2018,06,15,15,59,21.30
2018,06,15,16,00,21.20
2018,06,15,16,01,21.10
2018,06,15,16,02,21.00
2018,06,15,16,03,20.90
2018,06,15,16,04,20.80
2018,06,15,16,05,20.90
2018,06,15,16,06,20.90
2018,06,15,16,07,20.90
2018,06,15,16,08,21.00
2018,06,15,16,09,21.10
2018,06,15,16,10,21.20
2018,06,15,16,11,21.30
2018,06,15,16,12,21.30
2018,06,15,16,13,21.40
2018,06,15,16,14,21.50
2018,06,15,16,15,21.50
2018,06,15,16,16,21.50
2018,06,15,16,17,21.40
2018,06,15,16,18,21.40
2018,06,15,16,19,21.30
2018,06,15,16,20,21.20
2018,06,15,16,21,21.10
2018,06,15,16,22,21.10
2018,06,15,16,23,21.00
2018,06,15,16,24,21.10
2018,06,15,16,25,21.10
2018,06,15,16,26,21.20
2018,06,15,16,27,21.20
2018,06,15,16,28,21.20
2018,06,15,16,29,21.30
2018,06,15,16,30,21.30
2018,06,15,16,31,21.40
2018,06,15,16,32,21.50
2018,06,15,16,33,21.50
2018,06,15,16,34,21.60
2018,06,15,16,35,21.60
2018,06,15,16,36,21.60
2018,06,15,16,37,21.70
2018,06,15,16,38,21.70
2018,06,15,16,39,21.60
2018,06,15,16,40,21.50
2018,06,15,16,41,21.40
2018,06,15,16,42,21.30
2018,06,15,16,43,21.30
2018,06,15,16,44,21.30
2018,06,15,16,45,21.40
2018,06,15,16,46,21.50
2018,06,15,16,47,21.60
2018,06,15,16,48,21.70
2018,06,15,16,49,21.80
2018,06,15,16,50,21.80
2018,06,15,16,51,21.90
2018,06,15,16,52,22.00
2018,06,15,16,53,22.00
2018,06,15,16,54,22.10
2018,06,15,16,55,22.20
2018,06,15,16,56,22.10
2018,06,15,16,57,22.00
2018,06,15,16,58,21.80
2018,06,15,16,59,21.60
2018,06,15,17,00,21.50
2018,06,15,17,01,21.50
2018,06,15,17,02,21.50
2018,06,15,17,03,21.50
2018,06,15,17,04,21.50
2018,06,15,17,05,21.50
2018,06,15,17,06,21.60
2018,06,15,17,07,21.60
2018,06,15,17,08,21.60
2018,06,15,17,09,21.60
2018,06,15,17,10,21.70
2018,06,15,17,11,21.70
2018,06,15,17,12,21.70
2018,06,15,17,13,21.60
2018,06,15,17,14,21.60
2018,06,15,17,15,21.50
2018,06,15,17,16,21.50
2018,06,15,17,17,21.50
2018,06,15,17,18,21.50
2018,06,15,17,19,21.40